Location: Azul
(36.7830°S, 59.8500°W)
Time: 17:45:34
(UTC-03:00)

AIST 2D - Pass Details

Date: 28 October 2021
Orbit: 445 x 462 km, 97.1° (Epoch: 06 December)

Event Time Altitude Azimuth Distance (km) Brightness Sun altitude
Exits shadow 22:09:23 19° 184° (S) 1,150 ? -28.1°
Drops below altitude 10° 22:10:29 10° 187° (S) 1,604 ? -28.2°
Sets 22:12:32 0° 188° (S) 2,485 ? -28.5°
